When you browse on this site, cookies collect data to enhance your experience and personalize the content and advertising you see.
Visit our Privacy Policy to learn more. By continuing to use the site, you agree to this use of cookies and data.
  • In Sweden
  • List of Countries
  • For 7 days
  • Water Temperature
  • Weather Map
  • Weather Widgets
  • user-avatar
    Login

    Hourly Weather Kitzbuhel

    Today, 31 May, Sunday

    Time Temperature Precipitation Wind Pressure Humidity
    00:00 +4°C° 0 mm 1 mps 677 mmHg 95%
    01:00 +4°C° 0 mm 1 mps 677 mmHg 94%
    02:00 +4°C° 0 mm 1 mps 677 mmHg 94%
    03:00 +3°C° 0 mm 1 mps 677 mmHg 94%
    04:00 +3°C° 0 mm 1 mps 677 mmHg 94%
    05:00 +5°C° 0 mm 1 mps 677 mmHg 90%
    06:00 +5°C° 0 mm 0 mps 677 mmHg 87%
    07:00 +7°C° 0 mm 0 mps 677 mmHg 83%
    08:00 +10°C° 0 mm 1 mps 677 mmHg 74%
    09:00 +11°C° 0 mm 1 mps 678 mmHg 64%
    10:00 +13°C° 0 mm 2 mps 678 mmHg 54%
    11:00 +13°C° 0 mm 2 mps 678 mmHg 52%
    12:00 +14°C° 0 mm 2 mps 678 mmHg 49%
    13:00 +15°C° 0 mm 2 mps 678 mmHg 47%
    14:00 +14°C° 0 mm 2 mps 678 mmHg 48%
    15:00 +14°C° 0 mm 2 mps 678 mmHg 50%
    16:00 +13°C° 0 mm 3 mps 678 mmHg 51%
    17:00 +13°C° 0 mm 2 mps 678 mmHg 60%
    18:00 +12°C° 0 mm 2 mps 678 mmHg 68%
    19:00 +10°C° 0 mm 2 mps 678 mmHg 77%
    20:00 +10°C° 0 mm 1 mps 678 mmHg 82%
    21:00 +9°C° 0 mm 1 mps 678 mmHg 87%
    22:00 +6°C° 0 mm 0 mps 679 mmHg 92%
    23:00 +7°C° 0 mm 1 mps 679 mmHg 93%

    Tomorrow, 1 June, Monday

    Time Temperature Precipitation Wind Pressure Humidity
    00:00 +7°C° 0 mm 1 mps 679 mmHg 93%
    01:00 +6°C° 0 mm 1 mps 679 mmHg 93%
    02:00 +6°C° 0 mm 1 mps 678 mmHg 93%
    03:00 +5°C° 0 mm 1 mps 678 mmHg 93%
    04:00 +5°C° 0 mm 1 mps 678 mmHg 94%
    05:00 +7°C° 0 mm 1 mps 678 mmHg 86%
    06:00 +9°C° 0 mm 0 mps 679 mmHg 78%
    07:00 +11°C° 0 mm 0 mps 679 mmHg 70%
    08:00 +14°C° 0 mm 1 mps 679 mmHg 64%
    09:00 +16°C° 0 mm 1 mps 680 mmHg 59%
    10:00 +17°C° 0 mm 2 mps 680 mmHg 53%
    11:00 +18°C° 0 mm 2 mps 680 mmHg 51%
    12:00 +19°C° 0 mm 2 mps 680 mmHg 49%
    13:00 +20°C° 0 mm 3 mps 680 mmHg 47%
    14:00 +19°C° 0 mm 3 mps 679 mmHg 49%
    15:00 +19°C° 0 mm 3 mps 679 mmHg 51%
    16:00 +19°C° 0 mm 3 mps 679 mmHg 53%
    17:00 +17°C° 0 mm 2 mps 679 mmHg 62%
    18:00 +16°C° 0 mm 2 mps 678 mmHg 71%
    19:00 +14°C° 0 mm 1 mps 678 mmHg 80%
    20:00 +13°C° 0 mm 1 mps 678 mmHg 85%
    21:00 +11°C° 0 mm 1 mps 678 mmHg 90%
    22:00 +9°C° 0 mm 1 mps 678 mmHg 94%
    23:00 +9°C° 0 mm 1 mps 678 mmHg 94%

    Day after tomorrow, 2 June, Tuesday

    Time Temperature Precipitation Wind Pressure Humidity
    00:00 +8°C° 0 mm 1 mps 678 mmHg 95%
    01:00 +8°C° 0 mm 1 mps 678 mmHg 95%
    02:00 +8°C° 0 mm 1 mps 677 mmHg 94%
    03:00 +7°C° 0 mm 1 mps 677 mmHg 94%
    04:00 +7°C° 0 mm 1 mps 677 mmHg 94%
    05:00 +9°C° 0 mm 1 mps 677 mmHg 87%
    06:00 +10°C° 0 mm 0 mps 678 mmHg 80%
    07:00 +12°C° 0 mm 0 mps 678 mmHg 72%
    08:00 +15°C° 0 mm 1 mps 678 mmHg 65%
    09:00 +16°C° 0 mm 1 mps 678 mmHg 57%
    10:00 +18°C° 0 mm 2 mps 678 mmHg 50%
    11:00 +19°C° 0 mm 2 mps 678 mmHg 48%
    12:00 +19°C° 0 mm 3 mps 678 mmHg 46%
    13:00 +20°C° 0 mm 3 mps 678 mmHg 43%
    14:00 +19°C° 0 mm 3 mps 677 mmHg 45%
    15:00 +19°C° 0 mm 3 mps 677 mmHg 46%
    16:00 +19°C° 0 mm 3 mps 676 mmHg 47%
    17:00 +17°C° 0 mm 2 mps 676 mmHg 56%
    18:00 +16°C° 0 mm 2 mps 675 mmHg 65%
    19:00 +14°C° 0 mm 1 mps 675 mmHg 74%
    20:00 +13°C° 0 mm 1 mps 675 mmHg 80%
    21:00 +11°C° 0 mm 1 mps 675 mmHg 86%
    22:00 +9°C° 0 mm 1 mps 674 mmHg 92%
    23:00 +9°C° 0 mm 1 mps 674 mmHg 91%

    3 June, Wednesday

    Time Temperature Precipitation Wind Pressure Humidity
    00:00 +8°C° 0 mm 1 mps 674 mmHg 91%
    01:00 +8°C° 0 mm 1 mps 674 mmHg 90%
    02:00 +8°C° 0 mm 1 mps 673 mmHg 89%
    03:00 +8°C° 0 mm 1 mps 673 mmHg 87%
    04:00 +7°C° 0 mm 1 mps 673 mmHg 85%
    05:00 +10°C° 0 mm 1 mps 673 mmHg 77%
    06:00 +12°C° 0 mm 1 mps 673 mmHg 68%
    07:00 +13°C° 0 mm 0 mps 674 mmHg 59%
    08:00 +16°C° 0 mm 1 mps 674 mmHg 52%
    09:00 +19°C° 0 mm 1 mps 674 mmHg 45%
    10:00 +22°C° 0 mm 1 mps 674 mmHg 38%
    11:00 +22°C° 0 mm 1 mps 674 mmHg 37%
    12:00 +21°C° 0 mm 2 mps 674 mmHg 36%
    13:00 +21°C° 0 mm 2 mps 673 mmHg 35%
    14:00 +21°C° 0 mm 2 mps 673 mmHg 38%
    15:00 +21°C° 0 mm 2 mps 673 mmHg 40%
    16:00 +21°C° 0 mm 2 mps 672 mmHg 42%
    17:00 +19°C° 0.1 mm 2 mps 672 mmHg 54%
    18:00 +18°C° 0.1 mm 1 mps 672 mmHg 66%
    19:00 +16°C° 0.1 mm 1 mps 671 mmHg 78%
    20:00 +14°C° 0 mm 1 mps 671 mmHg 80%
    21:00 +13°C° 0 mm 1 mps 671 mmHg 82%
    22:00 +12°C° 0 mm 1 mps 671 mmHg 85%
    23:00 +10°C° 0 mm 2 mps 671 mmHg 84%

    4 June, Thursday

    Time Temperature Precipitation Wind Pressure Humidity
    00:00 +10°C° 0 mm 2 mps 671 mmHg 84%
    01:00 +10°C° 0 mm 2 mps 671 mmHg 83%
    02:00 +10°C° 0 mm 2 mps 670 mmHg 82%
    03:00 +10°C° 0 mm 2 mps 670 mmHg 81%
    04:00 +10°C° 0 mm 2 mps 670 mmHg 81%
    05:00 +13°C° 0 mm 1 mps 670 mmHg 79%
    06:00 +14°C° 0 mm 1 mps 670 mmHg 77%
    07:00 +15°C° 0 mm 1 mps 671 mmHg 76%
    08:00 +15°C° 0.1 mm 1 mps 671 mmHg 74%
    09:00 +16°C° 0.1 mm 1 mps 671 mmHg 73%
    10:00 +18°C° 0.1 mm 1 mps 671 mmHg 72%
    11:00 +16°C° 0.8 mm 1 mps 671 mmHg 79%
    12:00 +15°C° 0.8 mm 1 mps 670 mmHg 86%
    13:00 +14°C° 0.8 mm 1 mps 670 mmHg 93%
    14:00 +14°C° 0.5 mm 1 mps 670 mmHg 93%
    15:00 +15°C° 0.5 mm 1 mps 670 mmHg 93%
    16:00 +15°C° 0.5 mm 1 mps 670 mmHg 93%
    17:00 +14°C° 1.8 mm 1 mps 670 mmHg 95%
    18:00 +13°C° 1.8 mm 1 mps 670 mmHg 96%
    19:00 +13°C° 1.8 mm 1 mps 670 mmHg 98%
    20:00 +12°C° 0.3 mm 1 mps 671 mmHg 97%
    21:00 +12°C° 0.3 mm 1 mps 671 mmHg 95%
    22:00 +12°C° 0.3 mm 1 mps 671 mmHg 94%
    23:00 +11°C° 0 mm 1 mps 671 mmHg 93%

    5 June, Friday

    Time Temperature Precipitation Wind Pressure Humidity
    00:00 +11°C° 0 mm 1 mps 671 mmHg 93%
    01:00 +10°C° 0 mm 1 mps 671 mmHg 93%
    02:00 +10°C° 0 mm 1 mps 671 mmHg 93%
    03:00 +10°C° 0 mm 1 mps 671 mmHg 92%
    04:00 +10°C° 0 mm 1 mps 671 mmHg 92%
    05:00 +11°C° 0 mm 1 mps 671 mmHg 90%
    06:00 +12°C° 0 mm 0 mps 672 mmHg 87%
    07:00 +13°C° 0 mm 0 mps 672 mmHg 85%
    08:00 +15°C° 0 mm 0 mps 673 mmHg 77%
    09:00 +19°C° 0 mm 1 mps 673 mmHg 69%
    10:00 +21°C° 0 mm 1 mps 673 mmHg 61%
    11:00 +22°C° 0.2 mm 1 mps 673 mmHg 58%
    12:00 +23°C° 0.2 mm 1 mps 673 mmHg 55%
    13:00 +24°C° 0.2 mm 1 mps 673 mmHg 52%
    14:00 +24°C° 0.7 mm 1 mps 673 mmHg 60%
    15:00 +23°C° 0.7 mm 1 mps 672 mmHg 67%
    16:00 +22°C° 0.7 mm 1 mps 672 mmHg 75%
    17:00 +21°C° 1.4 mm 1 mps 672 mmHg 81%
    18:00 +19°C° 1.4 mm 1 mps 672 mmHg 86%
    19:00 +16°C° 1.4 mm 0 mps 671 mmHg 91%
    20:00 +16°C° 1.3 mm 1 mps 672 mmHg 93%
    21:00 +16°C° 1.3 mm 1 mps 672 mmHg 94%
    22:00 +15°C° 1.3 mm 1 mps 672 mmHg 95%
    23:00 +15°C° 0.8 mm 1 mps 672 mmHg 95%
    Show more